135  
NZUS99 KIND 131509  
HRRIND  
 
WEATHER ROUNDUP FOR INDIANA AND SURROUNDING STATES  
NATIONAL WEATHER SERVICE INDIANAPOLIS IN  
1100 AM EDT THU AUG 13 2020  
   
..INDIANA
 
 
 
CITY SKY/WX TMP DP RH WIND PRES REMARKS  
INDIANAPOLIS PTSUNNY 79 67 66 E6 30.08F  
EAGLE CREEK MOSUNNY 78 65 63 E6 30.08F  
ZIONSVILLE MOSUNNY 76 67 72 NE8 30.11S  
FISHERS MOSUNNY 81 73 78 NE5 30.10F  
MOUNT COMFORT MOSUNNY 79 75 89 N3 30.10F  
GREENWOOD PTSUNNY 76 68 76 CALM 30.10S  
SHELBYVILLE PTSUNNY 80 68 66 VRB3 30.08F  

 
 
CITY SKY/WX TMP DP RH WIND PRES REMARKS  
LAFAYETTE SUNNY 80 66 62 E7 30.09F  
KOKOMO SUNNY 77 66 68 E7 30.12F  
FRANKFORT CLOUDY N/A N/A N/A SE7 30.12S  
CRAWFORDSVILLE MOSUNNY 75 64 70 E5 30.10S  
MUNCIE SUNNY 78 67 68 CALM 30.10F  
GREENCASTLE FAIR 76 69 77 E8 30.10R  
TERRE HAUTE CLOUDY 77 71 82 N3 30.08R  
BLOOMINGTON CLOUDY 76 68 76 NE3 30.08S  
COLUMBUS PTSUNNY 73 68 83 CALM 30.08S  
BEDFORD CLOUDY 77 68 73 CALM 30.07S  
SEYMOUR CLOUDY 79 72 78 CALM 30.07S  
NORTH VERNON CLOUDY 79 70 73 CALM 30.08S  

 
 
CITY SKY/WX TMP DP RH WIND PRES REMARKS  
GARY PTSUNNY 77 63 61 CALM 30.13R  
VALPARAISO SUNNY 74 64 71 E5 30.13S  
LA PORTE MOSUNNY 72 61 68 E7 30.14S  
MICHIGAN CITY MOSUNNY 73 68 83 NE3 30.13S  
SOUTH BEND PTSUNNY 75 60 59 SE5 30.14S  
ELKHART PTSUNNY 72 63 73 CALM 30.14S  
GOSHEN MOSUNNY 77 62 59 SE6 30.13F  
ANGOLA MOSUNNY 77 59 53 E10 30.14S  
KENDALLVILLE FAIR 75 61 62 E6 30.15S  
AUBURN SUNNY 75 63 64 E6 30.15S  
RENSSELAER SUNNY 73 64 73 CALM 30.12S  
KNOX SUNNY 73 63 68 E3 30.12S  
PLYMOUTH SUNNY 73 63 68 NE5 30.12F  
ROCHESTER SUNNY 77 63 61 E6 30.12F  
FORT WAYNE MOSUNNY 75 62 64 E10 30.13F  
MONTICELLO SUNNY 75 65 70 CALM 30.10F  
LOGANSPORT SUNNY 75 64 69 CALM 30.12S  
PERU/GRISSOM SUNNY 77 67 72 E6 30.10F  
HUNTINGTON SUNNY N/A N/A N/A E5 30.12F  
MARION SUNNY 74 66 75 CALM 30.12S  
PORTLAND FAIR 73 59 60 CALM 30.12S  
RICHMOND FAIR 77 70 78 SE3 30.12S  
BATESVILLE PTSUNNY 77 75 94 NE3 30.09S  
WASHINGTON CLOUDY N/A N/A N/A CALM 30.06R  
FRENCH LICK FAIR 77 70 78 NE3 30.07S  
MADISON CLOUDY 79 72 78 CALM 30.09F  
HUNTINGBURG CLOUDY 78 75 90 CALM 30.06R  
JEFFERSONVILLE FAIR 81 73 78 CALM 30.05S  
EVANSVILLE PTSUNNY 81 72 74 CALM 30.05R  

 
   
..ILLINOIS
 
 
 
CITY SKY/WX TMP DP RH WIND PRES REMARKS  
CHICAGO PTSUNNY 82 62 50 NE6 30.12S  
MOLINE MOSUNNY 78 66 66 E7 30.09S  
ROCKFORD MOSUNNY 77 65 66 SE6 30.14S  
KANKAKEE SUNNY 77 66 69 E3 30.12  
PEORIA SUNNY 79 66 64 E6 30.09S  
BLOOMINGTON SUNNY 78 71 79 NE6 30.11S  
CHAMPAIGN MOSUNNY 79 71 76 E7 30.10R  
RANTOUL MOSUNNY 77 71 82 E5 30.10R  
DANVILLE MOSUNNY 79 69 73 SE7 30.11R  
QUINCY SUNNY 79 71 76 NE3 30.07S  
SPRINGFIELD MOSUNNY 80 68 66 E6 30.07F  
DECATUR MOSUNNY 78 73 84 E5 30.09S  
MATTOON CLOUDY 76 69 79 SE5 30.08R  
PARIS PTSUNNY 77 71 82 CALM 30.10R  
EFFINGHAM CLOUDY 74 71 91 CALM 30.09S  
ROBINSON CLOUDY 72 71 95 CALM 30.08S  
OLNEY CLOUDY 76 75 96 NE3 30.07S  
LAWRENCEVILLE CLOUDY 76 71 85 NE6 30.07R  
MOUNT VERNON CLOUDY 78 75 90 NE6 30.06S  
FAIRFIELD PTSUNNY 76 75 96 CALM 30.05S  
MOUNT CARMEL CLOUDY 76 72 87 NE3 30.07R  
CARMI PTSUNNY 79 77 94 CALM 30.04S  

 
   
..KENTUCKY
 
 
 
CITY SKY/WX TMP DP RH WIND PRES REMARKS  
LOUISVILLE CLOUDY 84 72 67 E5 30.05R  
PADUCAH CLOUDY 80 72 76 SE5 30.03S  
OWENSBORO MOSUNNY 80 77 90 SW3 30.05R  
FORT KNOX PTSUNNY 82 74 77 CALM 30.06S  
LEXINGTON MOSUNNY 84 71 65 NE3 30.07F  
BOWLING GREEN CLOUDY 79 75 87 S5 30.05S  
JACKSON SUNNY 79 70 74 VRB3 30.09F  

 
   
..OHIO
 
 
 
CITY SKY/WX TMP DP RH WIND PRES REMARKS  
CINCINNATI PTSUNNY 82 68 62 NE5 30.08S  
DAYTON MOSUNNY 80 67 64 N3 30.11F  
TOLEDO MOSUNNY 79 62 56 E6 30.13S  
DEFIANCE MOSUNNY 78 63 59 E9 30.13S  
FINDLAY SUNNY 80 62 54 NE10 30.12S  
LIMA SUNNY 78 64 61 E9 30.12S  
WRIGHT-PAT AFB MOSUNNY 80 65 60 NE6 30.09F  
COLUMBUS MOSUNNY 85 62 46 N7 30.08F  
CLEVELAND MOSUNNY 79 59 50 N6 30.13F  

 
   
..MICHIGAN
 
 
 
CITY SKY/WX TMP DP RH WIND PRES REMARKS  
DETROIT PTSUNNY 81 59 47 NE8 30.14F  
GRAND RAPIDS PTSUNNY 79 62 56 E7 30.16S  
LANSING MOSUNNY 78 59 51 N3 30.17S  
KALAMAZOO PTSUNNY 76 59 55 NE6 30.15F  
BATTLE CREEK PTSUNNY 78 58 49 NE7 30.16S  
MARSHALL MOSUNNY 77 61 57 E3 30.15F  
JACKSON MOSUNNY 79 58 48 NE7 30.16S  
BENTON HARBOR PTSUNNY 73 62 68 E3 30.14S  
STURGIS PTSUNNY 71 64 77 E3 30.14S  
COLDWATER MOSUNNY 74 58 58 E5 30.15S  
HILLSDALE MOSUNNY 76 61 58 E7 30.16S  

 
   
..OTHER LOCATIONS
 
 
 
CITY SKY/WX TMP DP RH WIND PRES REMARKS  
SAINT LOUIS MO PTSUNNY 80 74 81 SE7 30.07R  
CAPE GIRARDEAU CLOUDY 78 73 84 NE5 30.03S  
MILWAUKEE WI PTSUNNY 77 67 71 NE5 30.15R  
NASHVILLE TN MOSUNNY 83 71 67 CALM 30.06S  

 
 
 
 
CLICK HERE TO GO TO PREVIOUS BULLETINS.

The Nexlab IN Page Main Text Page